Location: Melbourne
(37.8666°S, 145.1333°E)
Time: 12:09:34
(UTC+10:00)

Hubble Space Telescope - Visible Passes

Search period start: 29 July 2016 00:00
Search period end: 08 August 2016 00:00
Orbit: 539 x 543 km, 28.5° (Epoch: 28 July)

Date Brightness Start Highest point End Pass type
(mag) Time Alt. Az. Time Alt. Az. Time Alt. Az.
29 Jul 3.2 18:15:02 10° NNW 18:17:08 13° NNE 18:19:13 10° NE visible
29 Jul 3.1 19:54:30 10° NW 19:56:04 17° NNW 19:56:04 17° NNW visible
30 Jul 3.1 18:04:46 10° NNW 18:07:17 16° NNE 18:09:48 10° NE visible
30 Jul 2.8 19:44:39 10° NW 19:46:57 20° NNW 19:46:57 20° NNW visible
31 Jul 3.0 17:54:38 10° NNW 17:57:27 18° NNE 18:00:16 10° NE visible
31 Jul 2.6 19:34:50 10° NW 19:37:51 22° N 19:37:51 22° N visible
01 Aug 2.6 19:25:04 10° NW 19:28:18 22° N 19:28:45 21° N visible
02 Aug 2.7 19:15:19 10° NW 19:18:29 21° N 19:19:42 18° NNE visible
03 Aug 2.9 19:05:37 10° NW 19:08:40 19° N 19:10:41 14° NNE visible
04 Aug 3.1 18:55:59 10° NW 18:58:50 18° NNW 19:01:41 10° NNE visible
05 Aug 3.3 18:46:26 10° NW 18:48:59 16° NNW 18:51:34 10° NNE visible
06 Aug 3.4 18:36:59 10° NW 18:39:09 14° NNW 18:41:19 10° NNE visible
07 Aug 3.6 18:27:47 10° NW 18:29:17 12° NNW 18:30:47 10° N visible
